Time,TemperatureF,DewpointF,PressureIn,WindDirection,WindDirectionDegrees,WindSpeedMPH,WindSpeedGustMPH,Humidity,HourlyPrecipIn,Conditions,Clouds,dailyrainin,SolarRadiationWatts/m^2,SoftwareType,DateUTC
2013-03-18 00:11:00,28.7,23.0,30.00,ENE,75,5.0,16.0,78,0.00,,,0.00,0,weatherlink.com 1.10,2013-03-18 04:11:00,
2013-03-18 00:26:00,28.5,23.0,29.99,East,93,11.0,16.0,79,0.00,,,0.00,0,weatherlink.com 1.10,2013-03-18 04:26:00,
2013-03-18 00:41:00,28.5,23.0,29.98,ENE,74,8.0,17.0,79,0.00,,,0.00,0,weatherlink.com 1.10,2013-03-18 04:41:00,
2013-03-18 00:56:00,28.4,23.0,29.98,ENE,57,7.0,14.0,79,0.00,,,0.00,0,weatherlink.com 1.10,2013-03-18 04:56:00,
2013-03-18 01:11:00,28.4,23.0,29.98,ENE,65,4.0,14.0,80,0.00,,,0.00,0,weatherlink.com 1.10,2013-03-18 05:11:00,
2013-03-18 01:27:00,28.4,23.0,29.98,ENE,71,7.0,15.0,80,0.00,,,0.00,0,weatherlink.com 1.10,2013-03-18 05:27:00,
2013-03-18 01:42:00,28.3,23.0,29.96,East,95,7.0,16.0,80,0.00,,,0.00,0,weatherlink.com 1.10,2013-03-18 05:42:00,
2013-03-18 01:59:00,28.1,23.0,29.95,East,83,8.0,14.0,80,0.00,,,0.00,0,weatherlink.com 1.10,2013-03-18 05:59:00,
2013-03-18 02:12:00,28.1,23.0,29.94,ESE,122,10.0,16.0,81,0.00,,,0.00,0,weatherlink.com 1.10,2013-03-18 06:12:00,
2013-03-18 02:27:00,28.1,23.0,29.93,East,89,7.0,12.0,81,0.00,,,0.00,0,weatherlink.com 1.10,2013-03-18 06:27:00,
2013-03-18 02:43:00,28.1,23.0,29.92,East,82,9.0,15.0,81,0.00,,,0.00,0,weatherlink.com 1.10,2013-03-18 06:43:00,
2013-03-18 02:57:00,28.1,23.0,29.91,SE,129,9.0,15.0,81,0.00,,,0.00,0,weatherlink.com 1.10,2013-03-18 06:57:00,
2013-03-18 03:12:00,28.2,23.0,29.91,East,98,10.0,19.0,81,0.00,,,0.00,0,weatherlink.com 1.10,2013-03-18 07:12:00,
2013-03-18 03:27:00,28.5,23.0,29.89,East,89,8.0,17.0,81,0.00,,,0.00,0,weatherlink.com 1.10,2013-03-18 07:27:00,
2013-03-18 03:43:00,28.7,24.0,29.89,ESE,109,5.0,15.0,81,0.00,,,0.00,0,weatherlink.com 1.10,2013-03-18 07:43:00,
2013-03-18 03:59:00,28.8,24.0,29.86,ENE,62,3.0,16.0,81,0.00,,,0.00,0,weatherlink.com 1.10,2013-03-18 07:59:00,
2013-03-18 04:13:00,29.0,24.0,29.85,ESE,104,10.0,14.0,81,0.00,,,0.00,0,weatherlink.com 1.10,2013-03-18 08:13:00,
2013-03-18 04:28:00,29.2,24.0,29.84,East,89,6.0,14.0,81,0.00,,,0.00,0,weatherlink.com 1.10,2013-03-18 08:28:00,
2013-03-18 04:43:00,29.2,24.0,29.83,ESE,112,9.0,14.0,81,0.00,,,0.00,0,weatherlink.com 1.10,2013-03-18 08:43:00,
2013-03-18 04:58:00,29.2,24.0,29.82,East,83,6.0,15.0,82,0.00,,,0.00,0,weatherlink.com 1.10,2013-03-18 08:58:00,
2013-03-18 05:13:00,29.1,25.0,29.80,ENE,75,16.0,16.0,83,0.00,,,0.00,0,weatherlink.com 1.10,2013-03-18 09:13:00,
2013-03-18 05:29:00,28.9,25.0,29.79,ESE,110,10.0,18.0,85,0.00,,,0.00,0,weatherlink.com 1.10,2013-03-18 09:29:00,
2013-03-18 05:44:00,28.9,25.0,29.79,NE,56,9.0,17.0,86,0.00,,,0.00,0,weatherlink.com 1.10,2013-03-18 09:44:00,
2013-03-18 05:59:00,28.8,25.0,29.78,ENE,75,10.0,15.0,87,0.00,,,0.00,0,weatherlink.com 1.10,2013-03-18 09:59:00,
2013-03-18 06:14:00,28.8,26.0,29.77,ENE,73,7.0,16.0,88,0.00,,,0.00,0,weatherlink.com 1.10,2013-03-18 10:14:00,
2013-03-18 06:29:00,28.7,26.0,29.76,East,89,9.0,15.0,89,0.00,,,0.00,0,weatherlink.com 1.10,2013-03-18 10:29:00,
2013-03-18 06:44:00,28.6,26.0,29.76,ENE,65,13.0,14.0,90,0.00,,,0.00,0,weatherlink.com 1.10,2013-03-18 10:44:00,
2013-03-18 06:59:00,28.6,26.0,29.75,ENE,61,5.0,17.0,90,0.00,,,0.00,0,weatherlink.com 1.10,2013-03-18 10:59:00,
2013-03-18 07:15:00,28.6,26.0,29.74,ENE,77,8.0,16.0,91,0.00,,,0.00,0,weatherlink.com 1.10,2013-03-18 11:15:00,
2013-03-18 07:30:00,28.7,26.0,29.74,ENE,76,11.0,14.0,91,0.00,,,0.00,0,weatherlink.com 1.10,2013-03-18 11:30:00,
2013-03-18 07:45:00,28.7,26.0,29.74,East,86,6.0,15.0,91,0.00,,,0.00,0,weatherlink.com 1.10,2013-03-18 11:45:00,
2013-03-18 08:00:00,28.8,27.0,29.74,East,91,6.0,15.0,92,0.00,,,0.00,0,weatherlink.com 1.10,2013-03-18 12:00:00,
2013-03-18 08:15:00,29.0,27.0,29.72,ENE,70,12.0,14.0,93,0.00,,,0.00,0,weatherlink.com 1.10,2013-03-18 12:15:00,
2013-03-18 08:30:00,29.0,27.0,29.71,ENE,66,7.0,17.0,93,0.00,,,0.00,0,weatherlink.com 1.10,2013-03-18 12:30:00,
2013-03-18 08:46:00,29.3,28.0,29.70,ENE,75,11.0,15.0,93,0.00,,,0.00,9,weatherlink.com 1.10,2013-03-18 12:46:00,
2013-03-18 09:00:00,29.4,28.0,29.70,East,85,9.0,15.0,93,0.00,,,0.00,12,weatherlink.com 1.10,2013-03-18 13:00:00,
2013-03-18 09:16:00,29.5,28.0,29.69,SE,129,11.0,16.0,93,0.00,,,0.00,21,weatherlink.com 1.10,2013-03-18 13:16:00,
2013-03-18 09:31:00,29.7,28.0,29.68,East,95,7.0,11.0,93,0.00,,,0.00,25,weatherlink.com 1.10,2013-03-18 13:31:00,
2013-03-18 09:46:00,29.8,28.0,29.67,ENE,69,2.0,14.0,93,0.00,,,0.00,44,weatherlink.com 1.10,2013-03-18 13:46:00,
2013-03-18 10:01:00,30.1,28.0,29.67,East,97,14.0,14.0,93,0.00,,,0.00,39,weatherlink.com 1.10,2013-03-18 14:01:00,
2013-03-18 10:16:00,30.2,29.0,29.66,East,79,5.0,17.0,93,0.00,,,0.00,49,weatherlink.com 1.10,2013-03-18 14:16:00,
2013-03-18 10:31:00,30.5,29.0,29.64,East,80,7.0,11.0,93,0.00,,,0.00,93,weatherlink.com 1.10,2013-03-18 14:31:00,
2013-03-18 10:46:00,30.7,29.0,29.64,ENE,72,5.0,13.0,93,0.00,,,0.00,62,weatherlink.com 1.10,2013-03-18 14:46:00,
2013-03-18 11:02:00,30.9,29.0,29.64,ENE,71,5.0,14.0,93,0.00,,,0.00,40,weatherlink.com 1.10,2013-03-18 15:02:00,
2013-03-18 11:17:00,31.0,29.0,29.64,ESE,106,5.0,14.0,93,0.00,,,0.00,42,weatherlink.com 1.10,2013-03-18 15:17:00,
2013-03-18 11:32:00,31.1,29.0,29.63,ESE,104,4.0,13.0,93,0.00,,,0.00,65,weatherlink.com 1.10,2013-03-18 15:32:00,
2013-03-18 11:47:00,31.3,30.0,29.62,East,93,8.0,13.0,94,0.00,,,0.00,128,weatherlink.com 1.10,2013-03-18 15:47:00,
2013-03-18 12:02:00,31.4,30.0,29.62,ESE,108,7.0,10.0,94,0.00,,,0.00,74,weatherlink.com 1.10,2013-03-18 16:02:00,
2013-03-18 12:17:00,31.6,30.0,29.63,SE,129,3.0,10.0,95,0.00,,,0.00,91,weatherlink.com 1.10,2013-03-18 16:17:00,
2013-03-18 12:32:00,31.9,31.0,29.61,ESE,121,5.0,11.0,95,0.01,,,0.01,105,weatherlink.com 1.10,2013-03-18 16:32:00,
2013-03-18 12:47:00,32.0,31.0,29.61,East,92,3.0,9.0,95,0.01,,,0.01,83,weatherlink.com 1.10,2013-03-18 16:47:00,
2013-03-18 13:03:00,32.1,31.0,29.60,East,79,5.0,11.0,95,0.01,,,0.01,118,weatherlink.com 1.10,2013-03-18 17:03:00,
2013-03-18 13:19:00,32.5,31.0,29.59,East,91,2.0,10.0,95,0.01,,,0.01,220,weatherlink.com 1.10,2013-03-18 17:19:00,
2013-03-18 13:33:00,32.8,32.0,29.58,ESE,102,4.0,7.0,95,0.00,,,0.01,114,weatherlink.com 1.10,2013-03-18 17:33:00,
2013-03-18 13:48:00,32.9,32.0,29.58,East,101,4.0,9.0,95,0.00,,,0.01,86,weatherlink.com 1.10,2013-03-18 17:48:00,
2013-03-18 14:03:00,33.0,32.0,29.57,SE,125,2.0,11.0,95,0.00,,,0.01,102,weatherlink.com 1.10,2013-03-18 18:03:00,
2013-03-18 14:18:00,33.2,32.0,29.56,SE,128,8.0,9.0,96,0.00,,,0.01,98,weatherlink.com 1.10,2013-03-18 18:18:00,
2013-03-18 14:33:00,33.3,32.0,29.55,SE,131,2.0,7.0,96,0.00,,,0.01,81,weatherlink.com 1.10,2013-03-18 18:33:00,
2013-03-18 14:48:00,33.7,33.0,29.57,SSW,201,5.0,5.0,96,0.00,,,0.01,70,weatherlink.com 1.10,2013-03-18 18:48:00,
2013-03-18 15:04:00,33.6,33.0,29.57,South,185,3.0,7.0,96,0.00,,,0.01,53,weatherlink.com 1.10,2013-03-18 19:04:00,
2013-03-18 15:19:00,33.7,33.0,29.56,SSE,149,4.0,7.0,96,0.00,,,0.01,67,weatherlink.com 1.10,2013-03-18 19:19:00,
2013-03-18 15:34:00,33.8,33.0,29.56,WSW,238,5.0,7.0,96,0.00,,,0.01,54,weatherlink.com 1.10,2013-03-18 19:34:00,
2013-03-18 15:49:00,33.8,33.0,29.56,SW,226,2.0,6.0,96,0.01,,,0.02,49,weatherlink.com 1.10,2013-03-18 19:49:00,
2013-03-18 16:04:00,34.0,33.0,29.54,SSW,211,4.0,5.0,96,0.01,,,0.02,77,weatherlink.com 1.10,2013-03-18 20:04:00,
2013-03-18 16:20:00,34.3,33.0,29.54,SW,235,3.0,7.0,96,0.02,,,0.03,84,weatherlink.com 1.10,2013-03-18 20:20:00,
2013-03-18 16:34:00,34.4,33.0,29.55,WSW,238,3.0,8.0,96,0.02,,,0.03,53,weatherlink.com 1.10,2013-03-18 20:34:00,
2013-03-18 16:49:00,34.4,33.0,29.55,SW,222,6.0,11.0,96,0.01,,,0.03,42,weatherlink.com 1.10,2013-03-18 20:49:00,
2013-03-18 17:04:00,34.5,34.0,29.56,SW,216,8.0,11.0,96,0.01,,,0.03,47,weatherlink.com 1.10,2013-03-18 21:04:00,
2013-03-18 17:20:00,34.7,34.0,29.56,WSW,249,4.0,14.0,96,0.00,,,0.03,58,weatherlink.com 1.10,2013-03-18 21:20:00,
2013-03-18 17:35:00,34.8,34.0,29.57,WNW,297,4.0,14.0,96,0.00,,,0.03,53,weatherlink.com 1.10,2013-03-18 21:35:00,
2013-03-18 17:50:00,34.7,34.0,29.57,NW,320,3.0,15.0,95,0.00,,,0.03,47,weatherlink.com 1.10,2013-03-18 21:50:00,
2013-03-18 18:05:00,34.6,33.0,29.58,WSW,253,5.0,13.0,94,0.00,,,0.03,26,weatherlink.com 1.10,2013-03-18 22:05:00,
2013-03-18 18:20:00,34.3,33.0,29.59,West,281,11.0,16.0,93,0.00,,,0.03,19,weatherlink.com 1.10,2013-03-18 22:20:00,
2013-03-18 18:35:00,34.1,32.0,29.59,SSE,166,2.0,13.0,93,0.00,,,0.03,21,weatherlink.com 1.10,2013-03-18 22:35:00,
2013-03-18 18:50:00,33.7,32.0,29.60,WNW,293,6.0,14.0,94,0.00,,,0.03,16,weatherlink.com 1.10,2013-03-18 22:50:00,
2013-03-18 19:05:00,33.5,32.0,29.61,West,280,4.0,15.0,94,0.00,,,0.03,11,weatherlink.com 1.10,2013-03-18 23:05:00,
2013-03-18 19:35:00,33.7,32.0,29.62,SW,221,9.0,13.0,94,0.00,,,0.03,7,weatherlink.com 1.10,2013-03-18 23:35:00,
2013-03-18 19:51:00,33.9,32.0,29.63,West,276,5.0,14.0,93,0.00,,,0.03,0,weatherlink.com 1.10,2013-03-18 23:51:00,
2013-03-18 20:06:00,34.1,32.0,29.63,SW,232,12.0,12.0,93,0.00,,,0.03,0,weatherlink.com 1.10,2013-03-19 00:06:00,
2013-03-18 20:21:00,34.4,32.0,29.64,West,260,3.0,13.0,92,0.00,,,0.03,0,weatherlink.com 1.10,2013-03-19 00:21:00,
2013-03-18 20:36:00,34.6,33.0,29.65,WNW,292,8.0,11.0,92,0.00,,,0.03,0,weatherlink.com 1.10,2013-03-19 00:36:00,
2013-03-18 20:51:00,35.0,33.0,29.65,West,276,9.0,23.0,92,0.01,,,0.04,0,weatherlink.com 1.10,2013-03-19 00:51:00,
2013-03-18 21:06:00,35.0,33.0,29.65,West,271,7.0,13.0,92,0.01,,,0.04,0,weatherlink.com 1.10,2013-03-19 01:06:00,
2013-03-18 21:22:00,35.1,33.0,29.66,WSW,246,8.0,17.0,92,0.01,,,0.04,0,weatherlink.com 1.10,2013-03-19 01:22:00,
2013-03-18 21:36:00,35.3,33.0,29.66,WNW,295,8.0,22.0,90,0.01,,,0.04,0,weatherlink.com 1.10,2013-03-19 01:36:00,
2013-03-18 21:53:00,33.4,30.0,29.68,WSW,250,5.0,16.0,88,0.00,,,0.04,0,weatherlink.com 1.10,2013-03-19 01:53:00,
2013-03-18 22:07:00,32.9,29.0,29.68,WSW,251,16.0,22.0,84,0.00,,,0.04,0,weatherlink.com 1.10,2013-03-19 02:07:00,
2013-03-18 22:22:00,32.5,27.0,29.68,WSW,247,21.0,29.0,79,0.00,,,0.04,0,weatherlink.com 1.10,2013-03-19 02:22:00,
2013-03-18 22:37:00,31.6,26.0,29.69,WNW,297,8.0,22.0,80,0.00,,,0.04,0,weatherlink.com 1.10,2013-03-19 02:37:00,
2013-03-18 22:52:00,30.4,24.0,29.70,South,172,7.0,22.0,78,0.00,,,0.04,0,weatherlink.com 1.10,2013-03-19 02:52:00,
2013-03-18 23:07:00,30.1,25.0,29.70,West,276,6.0,17.0,80,0.00,,,0.04,0,weatherlink.com 1.10,2013-03-19 03:07:00,
2013-03-18 23:23:00,29.2,23.0,29.72,West,267,12.0,20.0,79,0.00,,,0.04,0,weatherlink.com 1.10,2013-03-19 03:23:00,
2013-03-18 23:37:00,28.2,22.0,29.72,SW,222,14.0,25.0,77,0.00,,,0.04,0,weatherlink.com 1.10,2013-03-19 03:37:00,
2013-03-18 23:53:00,27.4,21.0,29.72,WSW,253,18.0,22.0,76,0.00,,,0.04,0,weatherlink.com 1.10,2013-03-19 03:53:00,